TimeEST,TemperatureF,Dew PointF,Humidity,Sea Level PressureIn,VisibilityMPH,Wind Direction,Wind SpeedMPH,Gust SpeedMPH,PrecipitationIn,Events,Conditions,WindDirDegrees,DateUTC
12:15 AM,42.8,21.2,42,29.93,10.0,North,4.6,-,N/A,,Scattered Clouds,350,2012-11-08 05:15:00
12:35 AM,42.8,21.2,42,29.93,10.0,NNW,6.9,-,N/A,,Scattered Clouds,340,2012-11-08 05:35:00
12:55 AM,44.6,19.4,37,29.93,10.0,NNW,8.1,16.1,N/A,,Clear,330,2012-11-08 05:55:00
1:15 AM,44.6,17.6,34,29.93,10.0,NW,9.2,-,N/A,,Clear,320,2012-11-08 06:15:00
1:35 AM,42.8,19.4,39,29.93,10.0,NNW,5.8,-,N/A,,Scattered Clouds,340,2012-11-08 06:35:00
1:55 AM,42.8,19.4,39,29.93,10.0,North,9.2,-,N/A,,Overcast,350,2012-11-08 06:55:00
2:15 AM,42.8,19.4,39,29.93,10.0,North,5.8,-,N/A,,Mostly Cloudy,360,2012-11-08 07:15:00
2:35 AM,42.8,19.4,39,29.94,10.0,North,8.1,-,N/A,,Scattered Clouds,360,2012-11-08 07:35:00
2:55 AM,44.6,17.6,34,29.93,10.0,NNW,6.9,-,N/A,,Clear,340,2012-11-08 07:55:00
3:35 AM,44.6,17.6,34,29.93,10.0,NNW,5.8,-,N/A,,Clear,340,2012-11-08 08:35:00
3:55 AM,42.8,17.6,36,29.93,10.0,NNW,5.8,-,N/A,,Clear,340,2012-11-08 08:55:00
4:35 AM,42.8,17.6,36,29.93,10.0,North,6.9,-,N/A,,Clear,350,2012-11-08 09:35:00
4:55 AM,44.6,17.6,34,29.94,10.0,NNW,9.2,-,N/A,,Clear,330,2012-11-08 09:55:00
5:15 AM,42.8,17.6,36,29.94,10.0,NNW,9.2,-,N/A,,Clear,330,2012-11-08 10:15:00
5:35 AM,42.8,15.8,34,29.94,10.0,NNW,8.1,-,N/A,,Clear,330,2012-11-08 10:35:00
5:55 AM,42.8,15.8,34,29.94,10.0,NNW,8.1,-,N/A,,Clear,330,2012-11-08 10:55:00
6:15 AM,42.8,15.8,34,29.95,10.0,NNW,5.8,-,N/A,,Clear,340,2012-11-08 11:15:00
6:35 AM,42.8,15.8,34,29.95,10.0,NW,5.8,-,N/A,,Clear,320,2012-11-08 11:35:00
6:55 AM,42.8,15.8,34,29.95,10.0,WNW,4.6,-,N/A,,Clear,290,2012-11-08 11:55:00
7:15 AM,39.2,19.4,45,29.96,10.0,Calm,Calm,-,N/A,,Clear,0,2012-11-08 12:15:00
7:35 AM,42.8,15.8,34,29.97,10.0,NNW,5.8,-,N/A,,Clear,340,2012-11-08 12:35:00
7:55 AM,44.6,12.2,27,29.98,10.0,NNW,8.1,-,N/A,,Clear,330,2012-11-08 12:55:00
8:15 AM,44.6,14.0,29,29.99,10.0,North,4.6,-,N/A,,Clear,350,2012-11-08 13:15:00
8:35 AM,44.6,15.8,31,29.99,10.0,North,4.6,-,N/A,,Clear,10,2012-11-08 13:35:00
8:55 AM,46.4,12.2,25,29.99,10.0,North,6.9,-,N/A,,Clear,10,2012-11-08 13:55:00
9:15 AM,48.2,10.4,22,29.99,10.0,NNW,10.4,16.1,N/A,,Clear,330,2012-11-08 14:15:00
9:35 AM,51.8,8.6,18,29.99,10.0,NNW,17.3,25.3,N/A,,Clear,340,2012-11-08 14:35:00
9:55 AM,51.8,6.8,16,30.00,10.0,NNW,15.0,27.6,N/A,,Clear,330,2012-11-08 14:55:00
10:15 AM,51.8,8.6,18,30.00,10.0,NNW,9.2,20.7,N/A,,Clear,330,2012-11-08 15:15:00
10:35 AM,51.8,8.6,18,30.00,10.0,North,15.0,25.3,N/A,,Clear,350,2012-11-08 15:35:00
10:55 AM,53.6,8.6,16,30.01,10.0,NW,12.7,24.2,N/A,,Clear,320,2012-11-08 15:55:00
11:15 AM,53.6,10.4,18,30.00,10.0,North,13.8,23.0,N/A,,Clear,350,2012-11-08 16:15:00
11:35 AM,55.4,8.6,15,29.99,10.0,NNW,13.8,27.6,N/A,,Clear,340,2012-11-08 16:35:00
11:55 AM,55.4,8.6,15,29.98,10.0,NNW,21.9,26.5,N/A,,Clear,340,2012-11-08 16:55:00
12:15 PM,55.4,10.4,17,29.97,10.0,North,19.6,28.8,N/A,,Clear,350,2012-11-08 17:15:00
12:35 PM,55.4,10.4,17,29.97,10.0,North,17.3,28.8,N/A,,Clear,350,2012-11-08 17:35:00
12:55 PM,57.2,10.4,16,29.96,10.0,North,15.0,23.0,N/A,,Clear,350,2012-11-08 17:55:00
1:15 PM,55.4,10.4,17,29.97,10.0,North,11.5,20.7,N/A,,Clear,350,2012-11-08 18:15:00
1:55 PM,57.2,10.4,16,29.97,10.0,North,13.8,20.7,N/A,,Clear,350,2012-11-08 18:55:00
2:15 PM,57.2,10.4,16,29.96,10.0,NNW,9.2,21.9,N/A,,Clear,340,2012-11-08 19:15:00
2:35 PM,57.2,12.2,17,29.96,10.0,North,16.1,23.0,N/A,,Clear,350,2012-11-08 19:35:00
2:55 PM,55.4,12.2,18,29.96,10.0,NNW,15.0,24.2,N/A,,Clear,330,2012-11-08 19:55:00
3:15 PM,55.4,10.4,17,29.97,10.0,NNW,10.4,25.3,N/A,,Clear,330,2012-11-08 20:15:00
3:35 PM,55.4,12.2,18,29.97,10.0,NNW,16.1,21.9,N/A,,Clear,340,2012-11-08 20:35:00
3:55 PM,55.4,14.0,20,29.97,10.0,NNW,12.7,20.7,N/A,,Clear,340,2012-11-08 20:55:00
4:15 PM,53.6,14.0,21,29.98,10.0,NNW,11.5,-,N/A,,Clear,340,2012-11-08 21:15:00
4:35 PM,53.6,15.8,22,29.98,10.0,NW,10.4,16.1,N/A,,Clear,320,2012-11-08 21:35:00
4:55 PM,53.6,14.0,21,29.99,10.0,NNW,13.8,19.6,N/A,,Clear,330,2012-11-08 21:55:00
5:15 PM,51.8,15.8,24,30.00,10.0,NNW,5.8,-,N/A,,Clear,330,2012-11-08 22:15:00
5:35 PM,51.8,15.8,24,30.01,10.0,NNW,6.9,-,N/A,,Clear,330,2012-11-08 22:35:00
5:55 PM,48.2,17.6,30,30.01,10.0,North,3.5,-,N/A,,Clear,350,2012-11-08 22:55:00
6:15 PM,46.4,19.4,34,30.03,10.0,North,4.6,-,N/A,,Clear,360,2012-11-08 23:15:00
6:35 PM,48.2,19.4,32,30.03,10.0,NNW,9.2,-,N/A,,Clear,330,2012-11-08 23:35:00
6:55 PM,48.2,19.4,32,30.04,10.0,NNW,9.2,19.6,N/A,,Clear,340,2012-11-08 23:55:00
7:15 PM,48.2,21.2,34,30.05,10.0,NNW,10.4,-,N/A,,Clear,340,2012-11-09 00:15:00
7:35 PM,48.2,21.2,34,30.05,10.0,NNW,10.4,-,N/A,,Clear,340,2012-11-09 00:35:00
7:55 PM,46.4,24.8,43,30.06,10.0,North,11.5,18.4,N/A,,Clear,350,2012-11-09 00:55:00
8:15 PM,46.4,24.8,43,30.06,10.0,NNW,8.1,-,N/A,,Clear,340,2012-11-09 01:15:00
8:35 PM,46.4,24.8,43,30.06,10.0,NNW,6.9,-,N/A,,Clear,340,2012-11-09 01:35:00
8:55 PM,46.4,26.6,46,30.07,10.0,NNW,9.2,-,N/A,,Clear,340,2012-11-09 01:55:00
9:15 PM,46.4,26.6,46,30.07,10.0,NNW,6.9,-,N/A,,Clear,330,2012-11-09 02:15:00
9:35 PM,46.4,26.6,46,30.08,10.0,NNW,8.1,-,N/A,,Clear,330,2012-11-09 02:35:00
9:55 PM,44.6,26.6,49,30.08,10.0,NNW,6.9,-,N/A,,Clear,330,2012-11-09 02:55:00
10:15 PM,44.6,26.6,49,30.08,10.0,NNW,10.4,-,N/A,,Clear,330,2012-11-09 03:15:00
10:35 PM,46.4,26.6,46,30.08,10.0,NNW,12.7,17.3,N/A,,Clear,330,2012-11-09 03:35:00
10:55 PM,46.4,26.6,46,30.08,10.0,NNW,9.2,-,N/A,,Clear,330,2012-11-09 03:55:00
11:15 PM,44.6,26.6,49,30.08,10.0,NNW,3.5,-,N/A,,Clear,330,2012-11-09 04:15:00
11:35 PM,42.8,26.6,53,30.09,10.0,Calm,Calm,-,N/A,,Clear,0,2012-11-09 04:35:00
11:55 PM,44.6,26.6,49,30.09,10.0,NNW,4.6,-,N/A,,Clear,330,2012-11-09 04:55:00